CW8553 Weather Reports


Display with metric or nautical units.
time (UTC)temp
F
wind
direction
speed
MPH
gust
MPH
rain 1hr
in
rain 24hr
in
rain mn
in
humidity
%
barometer
mb
20260506034549 58 0 0.0 0.0 0.00 0.00 0.00 80 1015.5
20260506033039 59 0 0.0 0.0 0.00 0.00 0.00 80 1015.4
20260506031535 60 0 0.0 0.0 0.00 0.00 0.00 79 1015.2
20260506030040 60 0 0.0 0.0 0.00 0.00 0.00 78 1015.1
20260506024538 61 0 0.0 0.0 0.00 0.00 0.00 77 1015.2
20260506023039 61 0 0.0 0.0 0.00 0.00 0.00 76 1015.1
20260506021536 62 0 0.0 0.0 0.00 0.00 0.00 74 1015.1
20260506020034 62 0 0.0 0.0 0.00 0.00 0.00 74 1015.2
20260506014538 62 0 0.0 0.0 0.00 0.00 0.00 74 1015.1
20260506013050 62 0 0.0 0.0 0.00 0.00 0.00 74 1015.1
20260506011546 62 0 0.0 0.0 0.00 0.00 0.00 74 1015.1
20260506010037 62 0 0.0 0.0 0.00 0.00 0.00 75 1015.2
20260506004539 62 0 0.0 0.0 0.00 0.00 0.00 75 1015.2
20260506003038 63 0 0.0 0.0 0.00 0.00 0.00 74 1015.3
20260506001536 62 0 0.0 0.0 0.00 0.00 0.00 74 1015.4
20260506000036 62 0 0.0 0.0 0.00 0.00 0.00 75 1015.5
20260505234540 62 0 0.0 0.0 0.00 0.00 0.00 75 1015.7
20260505233038 63 0 0.0 0.0 0.00 0.00 0.00 73 1015.9
20260505231537 63 0 0.0 0.0 0.00 0.00 0.00 73 1015.9
20260505230056 62 0 0.0 0.0 0.00 0.00 0.00 75 1015.9
20260505224540 61 0 0.0 0.0 0.00 0.00 0.00 75 1016.1
20260505223042 61 0 0.0 0.0 0.00 0.00 0.00 76 1016.2
20260505221544 60 0 0.0 0.0 0.00 0.00 0.00 77 1016.4
20260505220050 60 0 0.0 0.0 0.00 0.00 0.00 76 1016.5
20260505214540 60 0 0.0 0.0 0.00 0.00 0.00 78 1016.6
20260505213040 60 0 0.0 0.0 0.00 0.00 0.00 77 1016.6
20260505211538 60 0 0.0 0.0 0.00 0.00 0.00 79 1016.5
20260505210037 59 0 0.0 0.0 0.00 0.00 0.00 78 1016.6
20260505204537 59 0 0.0 0.0 0.00 0.00 0.00 78 1016.7
20260505203036 59 0 0.0 0.0 0.00 0.00 0.00 80 1016.7
20260505201536 58 0 0.0 0.0 0.00 0.00 0.00 81 1016.5
20260505200042 58 0 0.0 0.0 0.00 0.00 0.00 81 1016.6
20260505194543 58 0 0.0 0.0 0.00 0.00 0.00 82 1016.6
20260505193044 57 0 0.0 0.0 0.00 0.00 0.00 82 1016.4
20260505191542 57 0 0.0 0.0 0.00 0.00 0.00 82 1016.4
20260505190038 57 0 0.0 0.0 0.00 0.00 0.00 83 1016.4
20260505184540 56 0 0.0 0.0 0.00 0.00 0.00 83 1016.4
20260505183040 56 0 0.0 0.0 0.00 0.00 0.00 84 1016.5
20260505181543 56 0 0.0 0.0 0.00 0.00 0.00 84 1016.3
20260505180037 56 0 0.0 0.0 0.00 0.00 0.00 85 1016.2
20260505174535 56 0 0.0 0.0 0.00 0.00 0.00 85 1016.3
20260505173040 55 0 0.0 0.0 0.00 0.00 0.00 86 1016.3
20260505171537 55 0 0.0 0.0 0.00 0.00 0.00 86 1016.2
20260505170038 55 0 0.0 0.0 0.00 0.00 0.00 87 1016.1
20260505164535 55 0 0.0 0.0 0.00 0.00 0.00 86 1016.1
20260505163034 55 0 0.0 0.0 0.00 0.00 0.00 87 1016.1
20260505161543 54 0 0.0 0.0 0.00 0.00 0.00 86 1016.0
20260505153037 54 0 0.0 0.0 0.00 0.00 0.00 87 1015.7
20260505151535 54 0 0.0 0.0 0.00 0.00 0.00 87 1015.7
20260505124549 54 0 0.0 0.0 0.00 0.00 0.00 88 1014.2
20260505123041 54 0 0.0 0.0 0.00 0.00 0.00 88 1014.2
20260505121542 54 0 0.0 0.0 0.00 0.00 0.00 89 1014.1
20260505120039 54 0 0.0 0.0 0.00 0.00 0.00 89 1014.0
20260505114538 54 0 0.0 0.0 0.00 0.00 0.00 88 1014.0
20260505113043 54 0 0.0 0.0 0.00 0.00 0.00 88 1014.1
20260505111540 54 0 0.0 0.0 0.00 0.00 0.00 89 1013.9
20260505101548 53 0 0.0 0.0 0.00 0.00 0.00 90 1013.7
20260505100036 53 0 0.0 0.0 0.00 0.00 0.00 89 1013.6
20260505094539 53 0 0.0 0.0 0.00 0.00 0.00 90 1013.5
20260505093039 53 0 0.0 0.0 0.00 0.00 0.00 90 1013.4
20260505091538 53 0 0.0 0.0 0.00 0.00 0.00 90 1013.4
20260505090042 53 0 0.0 0.0 0.00 0.00 0.00 90 1013.3
20260505084548 53 0 0.0 0.0 0.00 0.00 0.00 90 1013.1
20260505083053 53 0 0.0 0.0 0.00 0.00 0.00 90 1013.2
20260505081538 53 0 0.0 0.0 0.00 0.00 0.00 90 1013.2
20260505080046 53 0 0.0 0.0 0.00 0.00 0.00 90 1013.1
20260505074537 54 0 0.0 0.0 0.00 0.00 0.00 89 1012.9
20260505073038 54 0 0.0 0.0 0.00 0.00 0.00 89 1012.8
20260505071545 54 0 0.0 0.0 0.00 0.00 0.00 89 1012.5
20260505070035 54 0 0.0 0.0 0.00 0.00 0.00 88 1012.3
20260505064540 54 0 0.0 0.0 0.00 0.00 0.00 88 1012.3
20260505063040 54 0 0.0 0.0 0.00 0.00 0.00 88 1012.3
20260505061538 54 0 0.0 0.0 0.00 0.00 0.00 87 1011.9
20260505060042 55 0 0.0 0.0 0.00 0.00 0.00 87 1011.7
20260505054546 55 0 0.0 0.0 0.00 0.00 0.00 86 1011.7
20260505053040 55 0 0.0 0.0 0.00 0.00 0.00 85 1011.6
20260505051537 56 0 0.0 0.0 0.00 0.00 0.00 85 1011.6
20260505041549 60 0 0.0 0.0 0.00 0.00 0.00 76 1010.8
20260505040039 62 0 0.0 0.0 0.00 0.00 0.00 74 1010.6